Location: Unspecified
(43.3830°N, 0.0000°E)
Time: 02:29:16
(UTC+00:00)

Transit 2A Rocket - All Passes

Search period start: 25 June 2019 00:00
Search period end: 05 July 2019 00:00
Orbit: 586 x 917 km, 66.7° (Epoch: 23 June)

Date Brightness Start Highest point End Pass type
(mag) Time Alt. Az. Time Alt. Az. Time Alt. Az.
25 Jun - 08:22:57 10° S 08:28:13 31° ESE 08:33:23 10° NE daylight
25 Jun - 10:04:45 10° SW 10:10:40 50° NW 10:16:25 10° NNE daylight
25 Jun - 11:51:49 10° WNW 11:54:40 13° NNW 11:57:27 10° N daylight
25 Jun - 17:05:57 10° NNW 17:10:34 29° NE 17:14:48 10° ESE daylight
25 Jun - 18:48:29 10° NW 18:53:19 42° WSW 18:57:42 10° S daylight
26 Jun - 07:41:52 10° SSE 07:45:59 19° ESE 07:50:03 10° ENE daylight
26 Jun - 09:21:55 10° SW 09:28:02 77° WNW 09:33:59 10° NNE daylight
26 Jun - 11:07:28 10° W 11:11:36 19° NW 11:15:37 10° N daylight
26 Jun - 16:23:48 10° N 16:27:39 20° NE 16:31:16 10° E daylight
26 Jun - 18:05:45 10° NW 18:10:56 75° WSW 18:15:36 10° SSE daylight
27 Jun - 07:02:35 10° ESE 07:03:52 11° E 07:05:09 10° E daylight
27 Jun - 08:39:28 10° SSW 08:45:32 69° ESE 08:51:26 10° NE daylight
27 Jun - 10:23:37 10° W 10:28:39 26° NW 10:33:32 10° NNE daylight
27 Jun - 15:41:55 10° N 15:44:38 14° NNE 15:47:13 10° ENE daylight
27 Jun - 17:23:12 10° NNW 17:28:25 64° NE 17:33:06 10° SE daylight
27 Jun - 19:07:19 10° WNW 19:10:17 16° WSW 19:13:07 10° SW daylight
28 Jun - 07:57:25 10° S 08:03:07 43° ESE 08:08:42 10° NE daylight
28 Jun - 09:40:12 10° WSW 09:45:51 38° NW 09:51:18 10° NNE daylight
28 Jun - 11:28:43 10° NW 11:30:07 11° NNW 11:31:31 10° NNW daylight
28 Jun - 16:40:50 10° NNW 16:45:45 39° NE 16:50:12 10° ESE daylight
28 Jun - 18:23:50 10° NW 18:28:08 28° WSW 18:32:06 10° SSW daylight
29 Jun - 07:15:53 10° SSE 07:20:49 26° ESE 07:25:41 10° NE daylight
29 Jun - 08:57:08 10° SW 09:03:08 58° NW 09:08:57 10° NNE daylight
29 Jun - 10:43:41 10° WNW 10:46:59 15° NW 10:50:11 10° N daylight
29 Jun - 15:58:36 10° NNW 16:02:56 25° NE 16:06:56 10° E daylight
29 Jun - 17:40:54 10° NW 17:45:51 51° WSW 17:50:21 10° S daylight
30 Jun - 06:35:09 10° SE 06:38:38 16° ESE 06:42:04 10° ENE daylight
30 Jun - 08:14:25 10° SSW 08:20:34 89° WNW 08:26:30 10° NNE daylight
30 Jun - 09:59:31 10° W 10:03:57 21° NW 10:08:15 10° N daylight
30 Jun - 15:16:32 10° N 15:19:59 17° NE 15:23:14 10° ENE daylight
30 Jun - 16:58:15 10° NNW 17:03:25 89° W 17:08:06 10° SSE daylight
30 Jun - 18:44:25 10° W 18:44:59 10° W 18:45:32 10° WSW daylight
01 Jul - 07:32:06 10° SSW 07:38:05 58° ESE 07:43:53 10° NE daylight
01 Jul - 09:15:48 10° WSW 09:21:04 30° NW 09:26:07 10° NNE daylight
01 Jul - 14:34:50 10° N 14:36:54 12° NNE 14:38:55 10° NE daylight
01 Jul - 16:15:46 10° NNW 16:20:52 53° NE 16:25:27 10° SE daylight
01 Jul - 17:59:25 10° WNW 18:02:54 19° WSW 18:06:11 10° SSW daylight
02 Jul - 06:50:13 10° S 06:55:42 36° ESE 07:01:04 10° NE daylight
02 Jul - 08:32:30 10° WSW 08:38:17 44° NW 08:43:51 10° NNE daylight
02 Jul - 10:20:15 10° NW 10:22:25 12° NNW 10:24:32 10° N daylight
02 Jul - 15:33:27 10° NNW 15:38:08 33° NE 15:42:26 10° ESE daylight
02 Jul - 17:16:11 10° NW 17:20:42 34° WSW 17:24:52 10° S daylight
03 Jul - 06:08:54 10° SSE 06:13:26 22° ESE 06:17:54 10° ENE daylight
03 Jul - 07:49:33 10° SW 07:55:38 67° WNW 08:01:29 10° NNE daylight
03 Jul - 09:35:36 10° WNW 09:39:19 17° NW 09:42:54 10° N daylight
03 Jul - 14:51:16 10° N 14:55:17 22° NE 14:59:01 10° E daylight
03 Jul - 16:33:22 10° NW 16:38:22 62° WSW 16:42:55 10° SSE daylight
04 Jul - 05:28:40 10° SE 05:31:17 13° ESE 05:33:51 10° ENE daylight
04 Jul - 07:06:59 10° SSW 07:13:05 79° ESE 07:18:58 10° NNE daylight
04 Jul - 08:51:36 10° W 08:56:19 23° NW 09:00:53 10° N daylight
04 Jul - 14:09:18 10° N 14:12:17 15° NE 14:15:08 10° ENE daylight
04 Jul - 15:50:46 10° NNW 15:55:54 76° ENE 16:00:32 10° SE daylight
04 Jul - 17:35:31 10° WNW 17:37:37 13° WSW 17:39:39 10° SW daylight
